Welcome to Northern Hawkes Bay. New Zealand.
PWS Header
      nz Flag



Hit Counter


W3C Valid W3C Valid logo


    Wairoa

Select any of the Stations below to visit their websites.










Historic Data from Weather Underground
Select the location of interest below. Wairoa is the default. Please have patience, this Data is slow to load in.
Northern Hawkes Bay Historical Data
Daily Summary for October 31, 2017 Units:  Metric    English   Both
« Previous Day
Next Day »
Daily Weekly Monthly Yearly Custom
  High: Low: Average:
Temperature: 22.3 °C 12.4 °C 17.2 °C
Dew Point: 15.0 °C 11.1 °C 12.4 °C
Humidity: 92% 52% 75%
Wind Speed: 13.4km/h 0.0km/h 3.5km/h
Wind Gust: 25.6km/h - -
Wind- - SSE
Pressure: 1028.7 hPa 1026.3 hPa -
Precipitation: 0.0 mm    
Historical Graphs
 
 
Tabular Data for October 31, 2017
Time Temperature Dew Point Pressure Wind Wind Speed Wind Gust Humidity Rainfall Rate (Hourly) solar
00:02 15.0 °C 12.3 °C 1027.7 hPa North 5.0 km/h 8.7 km/h 84% 0.0 mm 0 W/m2
00:07 15.0 °C 12.2 °C 1027.7 hPa North 5.0 km/h 8.7 km/h 83% 0.0 mm 0 W/m2
00:12 14.9 °C 12.4 °C 1027.3 hPa North 3.5 km/h 7.2 km/h 85% 0.0 mm 0 W/m2
00:17 14.8 °C 12.3 °C 1027.3 hPa North 1.1 km/h 7.2 km/h 85% 0.0 mm 0 W/m2
00:22 14.7 °C 12.2 °C 1027.3 hPa North 2.6 km/h 7.2 km/h 85% 0.0 mm 0 W/m2
00:27 14.6 °C 12.1 °C 1027.3 hPa North 3.5 km/h 7.2 km/h 85% 0.0 mm 0 W/m2
00:32 14.6 °C 12.1 °C 1027.7 hPa North 3.5 km/h 7.2 km/h 85% 0.0 mm 0 W/m2
00:37 14.5 °C 12.0 °C 1027.3 hPa North 5.0 km/h 8.7 km/h 85% 0.0 mm 0 W/m2
00:42 14.5 °C 12.0 °C 1027.3 hPa North 3.5 km/h 9.7 km/h 85% 0.0 mm 0 W/m2
00:47 14.4 °C 11.9 °C 1027.7 hPa NNE 2.6 km/h 9.7 km/h 85% 0.0 mm 0 W/m2
00:52 14.2 °C 11.7 °C 1027.3 hPa NNE 2.6 km/h 8.7 km/h 85% 0.0 mm 0 W/m2
00:57 14.0 °C 11.5 °C 1027.3 hPa North 2.6 km/h 6.1 km/h 85% 0.0 mm 0 W/m2
01:02 13.9 °C 11.8 °C 1027.3 hPa North 2.6 km/h 6.1 km/h 87% 0.0 mm 0 W/m2
01:07 13.9 °C 11.8 °C 1027.3 hPa North 1.1 km/h 6.1 km/h 87% 0.0 mm 0 W/m2
01:12 13.7 °C 11.6 °C 1027.3 hPa North 2.6 km/h 6.1 km/h 87% 0.0 mm 0 W/m2
01:17 13.7 °C 11.6 °C 1027.0 hPa North 3.5 km/h 6.1 km/h 87% 0.0 mm 0 W/m2
01:22 13.7 °C 11.6 °C 1027.3 hPa North 2.6 km/h 6.1 km/h 87% 0.0 mm 0 W/m2
01:27 13.6 °C 11.5 °C 1027.0 hPa North 1.1 km/h 5.0 km/h 87% 0.0 mm 0 W/m2
01:32 13.5 °C 11.6 °C 1027.0 hPa North 2.6 km/h 5.0 km/h 88% 0.0 mm 0 W/m2
01:37 13.4 °C 11.4 °C 1027.0 hPa North 1.1 km/h 3.5 km/h 88% 0.0 mm 0 W/m2
01:42 13.3 °C 11.3 °C 1027.0 hPa NNW 1.1 km/h 3.5 km/h 88% 0.0 mm 0 W/m2
01:47 13.2 °C 11.4 °C 1027.0 hPa NNW 1.1 km/h 6.1 km/h 89% 0.0 mm 0 W/m2
01:52 13.0 °C 11.2 °C 1027.0 hPa Calm   6.1 km/h 89% 0.0 mm 0 W/m2
01:57 13.0 °C 11.2 °C 1027.0 hPa North 1.1 km/h 6.1 km/h 89% 0.0 mm 0 W/m2
02:02 12.9 °C 11.3 °C 1026.6 hPa NNW 3.5 km/h 6.1 km/h 90% 0.0 mm 0 W/m2
02:07 12.9 °C 11.3 °C 1027.0 hPa NNW 3.5 km/h 7.2 km/h 90% 0.0 mm 0 W/m2
02:17 12.8 °C 11.4 °C 1027.0 hPa North 2.6 km/h 6.1 km/h 91% 0.0 mm 0 W/m2
02:22 12.9 °C 11.4 °C 1027.0 hPa NNW 2.6 km/h 6.1 km/h 91% 0.0 mm 0 W/m2
02:27 12.9 °C 11.4 °C 1027.0 hPa NW 2.6 km/h 7.2 km/h 91% 0.0 mm 0 W/m2
02:32 13.0 °C 11.4 °C 1027.0 hPa NNW 2.6 km/h 7.2 km/h 90% 0.0 mm 0 W/m2
02:37 13.1 °C 11.5 °C 1027.0 hPa NNW 5.0 km/h 7.2 km/h 90% 0.0 mm 0 W/m2
02:42 13.1 °C 11.3 °C 1026.6 hPa North 2.6 km/h 8.7 km/h 89% 0.0 mm 0 W/m2
02:47 13.1 °C 11.3 °C 1026.6 hPa North 3.5 km/h 8.7 km/h 89% 0.0 mm 0 W/m2
02:52 13.0 °C 11.4 °C 1026.6 hPa North 3.5 km/h 7.2 km/h 90% 0.0 mm 0 W/m2
02:57 13.0 °C 11.4 °C 1026.6 hPa North 2.6 km/h 7.2 km/h 90% 0.0 mm 0 W/m2
03:02 13.0 °C 11.4 °C 1026.6 hPa North 3.5 km/h 7.2 km/h 90% 0.0 mm 0 W/m2
03:07 12.9 °C 11.4 °C 1026.6 hPa North 2.6 km/h 7.2 km/h 91% 0.0 mm 0 W/m2
03:12 12.9 °C 11.4 °C 1026.6 hPa North 1.1 km/h 7.2 km/h 91% 0.0 mm 0 W/m2
03:17 12.9 °C 11.4 °C 1026.6 hPa North 1.1 km/h 6.1 km/h 91% 0.0 mm 0 W/m2
03:22 12.8 °C 11.4 °C 1026.6 hPa North 1.1 km/h 6.1 km/h 91% 0.0 mm 0 W/m2
03:27 12.8 °C 11.4 °C 1026.6 hPa NNW 2.6 km/h 7.2 km/h 91% 0.0 mm 0 W/m2
03:32 12.9 °C 11.4 °C 1026.6 hPa NNW 2.6 km/h 7.2 km/h 91% 0.0 mm 0 W/m2
03:37 12.9 °C 11.4 °C 1026.6 hPa NNW 3.5 km/h 7.2 km/h 91% 0.0 mm 0 W/m2
03:42 13.0 °C 11.6 °C 1026.6 hPa North 3.5 km/h 8.7 km/h 91% 0.0 mm 0 W/m2
03:47 13.0 °C 11.4 °C 1026.6 hPa North 5.0 km/h 8.7 km/h 90% 0.0 mm 0 W/m2
03:52 13.0 °C 11.4 °C 1026.6 hPa North 2.6 km/h 7.2 km/h 90% 0.0 mm 0 W/m2
03:57 13.0 °C 11.4 °C 1026.6 hPa North 3.5 km/h 7.2 km/h 90% 0.0 mm 0 W/m2
04:02 12.9 °C 11.4 °C 1026.6 hPa NNW 1.1 km/h 6.1 km/h 91% 0.0 mm 0 W/m2
04:07 12.8 °C 11.4 °C 1026.6 hPa NNW 3.5 km/h 6.1 km/h 91% 0.0 mm 0 W/m2
04:12 12.7 °C 11.3 °C 1026.6 hPa NNW 1.1 km/h 6.1 km/h 91% 0.0 mm 0 W/m2
04:17 12.6 °C 11.2 °C 1026.6 hPa NNW 2.6 km/h 6.1 km/h 91% 0.0 mm 0 W/m2
04:22 12.5 °C 11.1 °C 1026.6 hPa North 1.1 km/h 6.1 km/h 91% 0.0 mm 0 W/m2
04:27 12.5 °C 11.2 °C 1026.6 hPa NNW 3.5 km/h 6.1 km/h 92% 0.0 mm 0 W/m2
04:32 12.4 °C 11.2 °C 1026.6 hPa North 2.6 km/h 7.2 km/h 92% 0.0 mm 0 W/m2
04:37 12.4 °C 11.2 °C 1026.3 hPa NNE 2.6 km/h 7.2 km/h 92% 0.0 mm 0 W/m2
04:42 12.4 °C 11.2 °C 1026.6 hPa North 5.0 km/h 7.2 km/h 92% 0.0 mm 0 W/m2
04:47 12.4 °C 11.2 °C 1026.6 hPa North 3.5 km/h 8.7 km/h 92% 0.0 mm 0 W/m2
04:57 12.5 °C 11.2 °C 1026.6 hPa NNW 2.6 km/h 7.2 km/h 92% 0.0 mm 0 W/m2
05:02 12.5 °C 11.2 °C 1026.6 hPa NNW 5.0 km/h 8.7 km/h 92% 0.0 mm 0 W/m2
05:07 12.5 °C 11.2 °C 1026.6 hPa NNW 3.5 km/h 8.7 km/h 92% 0.0 mm 0 W/m2
05:12 12.6 °C 11.3 °C 1026.6 hPa NNW 2.6 km/h 8.7 km/h 92% 0.0 mm 0 W/m2
05:17 12.6 °C 11.3 °C 1026.6 hPa NNW 5.0 km/h 8.7 km/h 92% 0.0 mm 0 W/m2
05:22 12.6 °C 11.3 °C 1026.6 hPa North 1.1 km/h 7.2 km/h 92% 0.0 mm 0 W/m2
05:27 12.7 °C 11.4 °C 1027.0 hPa North 2.6 km/h 7.2 km/h 92% 0.0 mm 0 W/m2
05:32 12.7 °C 11.3 °C 1026.6 hPa North 2.6 km/h 6.1 km/h 91% 0.0 mm 0 W/m2
05:37 12.7 °C 11.3 °C 1026.6 hPa Calm   6.1 km/h 91% 0.0 mm 0 W/m2
05:47 12.8 °C 11.4 °C 1027.0 hPa Calm   3.5 km/h 91% 0.0 mm 0 W/m2
05:52 12.7 °C 11.3 °C 1027.0 hPa North 2.6 km/h 5.0 km/h 91% 0.0 mm 0 W/m2
05:57 12.8 °C 11.4 °C 1027.0 hPa North 2.6 km/h 7.2 km/h 91% 0.0 mm 0 W/m2
06:02 12.8 °C 11.4 °C 1027.0 hPa North 5.0 km/h 8.7 km/h 91% 0.0 mm 0 W/m2
06:07 12.9 °C 11.4 °C 1027.0 hPa North 1.1 km/h 8.7 km/h 91% 0.0 mm 0 W/m2
06:12 13.0 °C 11.4 °C 1027.3 hPa Calm   8.7 km/h 90% 0.0 mm 0 W/m2
06:22 13.1 °C 11.3 °C 1027.0 hPa NNE 1.1 km/h 7.2 km/h 89% 0.0 mm 4 W/m2
06:27 13.1 °C 11.3 °C 1027.3 hPa NNE 5.0 km/h 7.2 km/h 89% 0.0 mm 9 W/m2
06:32 13.2 °C 11.4 °C 1027.3 hPa North 2.6 km/h 7.2 km/h 89% 0.0 mm 22 W/m2
06:37 13.3 °C 11.6 °C 1027.0 hPa North 3.5 km/h 7.2 km/h 89% 0.0 mm 28 W/m2
06:42 13.3 °C 11.3 °C 1027.0 hPa NNW 1.1 km/h 6.1 km/h 88% 0.0 mm 29 W/m2
06:47 13.4 °C 11.4 °C 1027.3 hPa NNW 2.6 km/h 6.1 km/h 88% 0.0 mm 35 W/m2
06:52 13.5 °C 11.6 °C 1027.3 hPa Calm   6.1 km/h 88% 0.0 mm 37 W/m2
06:57 13.6 °C 11.5 °C 1027.3 hPa Calm   5.0 km/h 87% 0.0 mm 38 W/m2
07:02 13.6 °C 11.5 °C 1027.0 hPa North 1.1 km/h 5.0 km/h 87% 0.0 mm 42 W/m2
07:07 13.6 °C 11.5 °C 1027.3 hPa NNW 2.6 km/h 5.0 km/h 87% 0.0 mm 52 W/m2
07:12 13.6 °C 11.5 °C 1027.0 hPa NW 1.1 km/h 5.0 km/h 87% 0.0 mm 58 W/m2
07:17 13.8 °C 11.7 °C 1027.3 hPa NW 2.6 km/h 5.0 km/h 87% 0.0 mm 69 W/m2
07:37 14.8 °C 12.5 °C 1027.3 hPa Calm   5.0 km/h 86% 0.0 mm 97 W/m2
07:42 15.3 °C 12.6 °C 1027.3 hPa Calm   3.5 km/h 84% 0.0 mm 190 W/m2
07:47 16.2 °C 13.1 °C 1027.3 hPa NW 2.6 km/h 3.5 km/h 82% 0.0 mm 197 W/m2
07:52 16.6 °C 12.8 °C 1027.3 hPa WNW 1.1 km/h 5.0 km/h 78% 0.0 mm 183 W/m2
07:57 16.6 °C 12.6 °C 1027.7 hPa Calm   5.0 km/h 77% 0.0 mm 150 W/m2
08:07 16.5 °C 12.3 °C 1027.7 hPa Calm   3.5 km/h 76% 0.0 mm 116 W/m2
08:12 16.4 °C 12.4 °C 1027.7 hPa Calm   3.5 km/h 77% 0.0 mm 137 W/m2
08:17 16.6 °C 12.6 °C 1027.7 hPa NNE 1.1 km/h 3.5 km/h 77% 0.0 mm 161 W/m2
08:22 16.8 °C 12.6 °C 1027.7 hPa NE 1.1 km/h 3.5 km/h 76% 0.0 mm 248 W/m2
08:27 17.7 °C 13.0 °C 1027.7 hPa Calm   3.5 km/h 74% 0.0 mm 337 W/m2
08:32 18.3 °C 12.7 °C 1027.7 hPa NE 1.1 km/h 5.0 km/h 70% 0.0 mm 198 W/m2
08:37 17.9 °C 12.6 °C 1027.7 hPa NE 1.1 km/h 5.0 km/h 71% 0.0 mm 246 W/m2
08:42 18.0 °C 12.7 °C 1027.7 hPa NNE 3.5 km/h 6.1 km/h 71% 0.0 mm 266 W/m2
08:47 18.3 °C 13.2 °C 1027.7 hPa North 1.1 km/h 6.1 km/h 72% 0.0 mm 254 W/m2
08:57 18.3 °C 12.7 °C 1027.7 hPa NNE 1.1 km/h 7.2 km/h 70% 0.0 mm 199 W/m2
09:02 18.4 °C 12.8 °C 1027.7 hPa NNE 5.0 km/h 7.2 km/h 70% 0.0 mm 264 W/m2
09:07 18.6 °C 12.8 °C 1028.0 hPa North 3.5 km/h 7.2 km/h 69% 0.0 mm 372 W/m2
09:12 19.6 °C 13.3 °C 1027.7 hPa Calm   7.2 km/h 67% 0.0 mm 484 W/m2
09:17 20.9 °C 13.6 °C 1027.7 hPa Calm   6.1 km/h 63% 0.0 mm 477 W/m2
09:22 21.9 °C 13.6 °C 1028.0 hPa NE 1.1 km/h 5.0 km/h 59% 0.0 mm 463 W/m2
09:27 21.7 °C 13.1 °C 1027.7 hPa ENE 3.5 km/h 8.7 km/h 58% 0.0 mm 472 W/m2
09:32 21.8 °C 12.4 °C 1028.0 hPa ENE 5.0 km/h 8.7 km/h 55% 0.0 mm 404 W/m2
09:37 21.4 °C 12.0 °C 1028.0 hPa ENE 5.0 km/h 8.7 km/h 55% 0.0 mm 405 W/m2
09:42 20.7 °C 11.9 °C 1028.0 hPa ENE 3.5 km/h 12.2 km/h 57% 0.0 mm 469 W/m2
09:47 20.5 °C 11.9 °C 1028.0 hPa ENE 3.5 km/h 12.2 km/h 58% 0.0 mm 419 W/m2
09:52 20.5 °C 13.0 °C 1028.0 hPa East 2.6 km/h 9.7 km/h 62% 0.0 mm 462 W/m2
09:57 20.8 °C 14.2 °C 1028.3 hPa ESE 2.6 km/h 9.7 km/h 66% 0.0 mm 474 W/m2
10:02 20.7 °C 13.2 °C 1028.0 hPa SE 6.1 km/h 8.7 km/h 62% 0.0 mm 567 W/m2
10:07 21.1 °C 13.8 °C 1028.0 hPa ESE 3.5 km/h 8.7 km/h 63% 0.0 mm 449 W/m2
10:12 20.7 °C 13.7 °C 1028.0 hPa ESE 1.1 km/h 8.7 km/h 64% 0.0 mm 551 W/m2
10:17 21.0 °C 13.7 °C 1028.0 hPa ESE 3.5 km/h 7.2 km/h 63% 0.0 mm 391 W/m2
10:22 20.5 °C 13.2 °C 1027.7 hPa Calm   9.7 km/h 63% 0.0 mm 401 W/m2
10:27 20.2 °C 13.4 °C 1028.0 hPa SE 5.0 km/h 12.2 km/h 65% 0.0 mm 435 W/m2
10:32 20.0 °C 13.0 °C 1028.0 hPa SSE 6.1 km/h 13.4 km/h 64% 0.0 mm 525 W/m2
10:37 20.1 °C 12.8 °C 1028.0 hPa South 3.5 km/h 13.4 km/h 63% 0.0 mm 617 W/m2
10:42 20.6 °C 13.6 °C 1028.0 hPa SSE 6.1 km/h 13.4 km/h 64% 0.0 mm 780 W/m2
10:47 21.2 °C 13.7 °C 1028.0 hPa SE 6.1 km/h 11.1 km/h 62% 0.0 mm 744 W/m2
10:52 21.4 °C 13.8 °C 1028.0 hPa SE 2.6 km/h 9.7 km/h 62% 0.0 mm 714 W/m2
11:07 21.4 °C 13.1 °C 1027.7 hPa SE 3.5 km/h 12.2 km/h 59% 0.0 mm 714 W/m2
11:12 21.3 °C 12.7 °C 1027.7 hPa SE 5.0 km/h 13.4 km/h 58% 0.0 mm 728 W/m2
11:17 21.2 °C 12.9 °C 1027.7 hPa SE 2.6 km/h 13.4 km/h 59% 0.0 mm 728 W/m2
11:22 21.3 °C 13.0 °C 1027.7 hPa SE 3.5 km/h 9.7 km/h 59% 0.0 mm 756 W/m2
11:27 21.3 °C 13.7 °C 1027.7 hPa SE 3.5 km/h 9.7 km/h 62% 0.0 mm 763 W/m2
11:32 21.3 °C 13.2 °C 1027.7 hPa SE 3.5 km/h 11.1 km/h 60% 0.0 mm 773 W/m2
11:37 21.3 °C 13.7 °C 1027.7 hPa SSE 3.5 km/h 11.1 km/h 62% 0.0 mm 772 W/m2
11:42 21.3 °C 13.2 °C 1027.7 hPa SSE 3.5 km/h 13.4 km/h 60% 0.0 mm 784 W/m2
11:47 21.1 °C 12.8 °C 1027.7 hPa SSE 5.0 km/h 13.4 km/h 59% 0.0 mm 790 W/m2
11:52 20.9 °C 13.3 °C 1027.7 hPa South 9.7 km/h 14.8 km/h 62% 0.0 mm 797 W/m2
11:57 21.1 °C 13.6 °C 1027.3 hPa SSE 2.6 km/h 14.8 km/h 62% 0.0 mm 801 W/m2
12:02 21.4 °C 13.3 °C 1027.7 hPa SE 2.6 km/h 14.8 km/h 60% 0.0 mm 810 W/m2
12:07 21.3 °C 12.2 °C 1027.7 hPa SE 5.0 km/h 15.8 km/h 56% 0.0 mm 811 W/m2
12:24 21.5 °C 13.9 °C 1027.3 hPa SE 6.1 km/h 12.2 km/h 62% 0.0 mm 814 W/m2
12:29 21.5 °C 13.9 °C 1027.3 hPa SE 5.0 km/h 12.2 km/h 62% 0.0 mm 821 W/m2
12:34 21.9 °C 14.1 °C 1027.3 hPa SE 3.5 km/h 12.2 km/h 61% 0.0 mm 831 W/m2
12:39 21.7 °C 13.3 °C 1027.3 hPa SE 5.0 km/h 13.4 km/h 59% 0.0 mm 801 W/m2
12:44 21.9 °C 14.1 °C 1027.3 hPa SE 2.6 km/h 14.8 km/h 61% 0.0 mm 813 W/m2
12:49 22.0 °C 13.9 °C 1027.3 hPa SE 3.5 km/h 14.8 km/h 60% 0.0 mm 814 W/m2
12:54 22.0 °C 14.2 °C 1027.3 hPa SE 2.6 km/h 15.8 km/h 61% 0.0 mm 810 W/m2
12:59 22.0 °C 14.4 °C 1027.3 hPa SE 3.5 km/h 15.8 km/h 62% 0.0 mm 812 W/m2
13:04 22.2 °C 14.1 °C 1027.3 hPa SE 3.5 km/h 14.8 km/h 60% 0.0 mm 822 W/m2
13:09 22.1 °C 14.0 °C 1027.3 hPa ESE 6.1 km/h 14.8 km/h 60% 0.0 mm 822 W/m2
13:14 22.1 °C 13.7 °C 1027.3 hPa ESE 7.2 km/h 15.8 km/h 59% 0.0 mm 753 W/m2
13:19 22.0 °C 14.2 °C 1027.3 hPa ESE 6.1 km/h 15.8 km/h 61% 0.0 mm 835 W/m2
13:24 22.1 °C 15.0 °C 1027.3 hPa ESE 9.7 km/h 18.3 km/h 64% 0.0 mm 840 W/m2
13:29 21.8 °C 14.7 °C 1027.3 hPa SE 8.7 km/h 18.3 km/h 64% 0.0 mm 310 W/m2
13:34 21.3 °C 14.2 °C 1027.3 hPa SE 1.1 km/h 18.3 km/h 64% 0.0 mm 475 W/m2
13:39 21.3 °C 14.2 °C 1027.3 hPa SE 5.0 km/h 13.4 km/h 64% 0.0 mm 570 W/m2
13:44 21.5 °C 14.7 °C 1027.0 hPa SE 6.1 km/h 13.4 km/h 65% 0.0 mm 677 W/m2
13:49 21.5 °C 14.7 °C 1027.0 hPa SSE 6.1 km/h 15.8 km/h 65% 0.0 mm 810 W/m2
13:59 22.1 °C 15.0 °C 1027.0 hPa SE 6.1 km/h 15.8 km/h 64% 0.0 mm 401 W/m2
14:04 21.4 °C 14.1 °C 1027.0 hPa ESE 6.1 km/h 17.2 km/h 63% 0.0 mm 341 W/m2
14:09 20.6 °C 14.1 °C 1027.0 hPa ESE 7.2 km/h 17.2 km/h 66% 0.0 mm 224 W/m2
14:14 20.6 °C 14.1 °C 1027.0 hPa ESE 6.1 km/h 14.8 km/h 66% 0.0 mm 609 W/m2
14:19 21.1 °C 14.3 °C 1027.0 hPa ESE 8.7 km/h 14.8 km/h 65% 0.0 mm 746 W/m2
14:29 20.6 °C 13.8 °C 1027.0 hPa ESE 6.1 km/h 17.2 km/h 65% 0.0 mm 240 W/m2
14:34 20.3 °C 13.5 °C 1027.0 hPa ESE 9.7 km/h 18.3 km/h 65% 0.0 mm 308 W/m2
14:39 20.8 °C 14.2 °C 1027.0 hPa ESE 7.2 km/h 19.5 km/h 66% 0.0 mm 359 W/m2
14:44 21.4 °C 14.3 °C 1027.0 hPa SE 5.0 km/h 19.5 km/h 64% 0.0 mm 453 W/m2
14:49 21.8 °C 14.2 °C 1026.6 hPa SE 5.0 km/h 18.3 km/h 62% 0.0 mm 359 W/m2
14:54 21.6 °C 14.0 °C 1027.0 hPa ESE 9.7 km/h 18.3 km/h 62% 0.0 mm 601 W/m2
14:59 21.9 °C 14.3 °C 1026.6 hPa SE 7.2 km/h 17.2 km/h 62% 0.0 mm 177 W/m2
15:04 22.0 °C 14.4 °C 1026.6 hPa SE 2.6 km/h 25.6 km/h 62% 0.0 mm 576 W/m2
15:09 22.1 °C 14.2 °C 1026.6 hPa SE 13.4 km/h 25.6 km/h 61% 0.0 mm 501 W/m2
15:14 22.0 °C 14.2 °C 1026.6 hPa ESE 8.7 km/h 23.3 km/h 61% 0.0 mm 570 W/m2
15:19 21.3 °C 13.7 °C 1026.6 hPa ESE 11.1 km/h 20.9 km/h 62% 0.0 mm 229 W/m2
15:24 20.3 °C 13.5 °C 1026.6 hPa ESE 6.1 km/h 20.9 km/h 65% 0.0 mm 430 W/m2
15:29 20.7 °C 13.9 °C 1026.6 hPa ESE 9.7 km/h 19.5 km/h 65% 0.0 mm 346 W/m2
15:34 21.0 °C 13.7 °C 1026.6 hPa SE 12.2 km/h 25.6 km/h 63% 0.0 mm 609 W/m2
15:39 21.5 °C 13.9 °C 1026.6 hPa ESE 9.7 km/h 25.6 km/h 62% 0.0 mm 281 W/m2
15:44 20.9 °C 13.6 °C 1026.6 hPa ESE 9.7 km/h 20.9 km/h 63% 0.0 mm 360 W/m2
15:49 21.1 °C 13.6 °C 1026.6 hPa SE 5.0 km/h 20.9 km/h 62% 0.0 mm 413 W/m2
15:54 21.4 °C 13.3 °C 1026.3 hPa ESE 7.2 km/h 19.5 km/h 60% 0.0 mm 400 W/m2
15:59 21.7 °C 13.3 °C 1026.3 hPa East 6.1 km/h 15.8 km/h 59% 0.0 mm 327 W/m2
16:04 22.2 °C 13.0 °C 1026.3 hPa East 8.7 km/h 18.3 km/h 56% 0.0 mm 436 W/m2
16:09 22.3 °C 12.8 °C 1026.3 hPa ESE 8.7 km/h 18.3 km/h 55% 0.0 mm 328 W/m2
16:23 20.6 °C 12.8 °C 1026.3 hPa ESE 6.1 km/h 20.9 km/h 61% 0.0 mm 257 W/m2
16:24 20.6 °C 12.8 °C 1026.3 hPa ESE 9.7 km/h 20.9 km/h 61% 0.0 mm 260 W/m2
16:25 20.6 °C 12.8 °C 1026.6 hPa ESE 5.0 km/h 20.9 km/h 61% 0.0 mm 279 W/m2
16:30 20.6 °C 12.6 °C 1026.6 hPa ESE 9.7 km/h 15.8 km/h 60% 0.0 mm 283 W/m2
16:32 20.6 °C 12.6 °C 1026.6 hPa ESE 7.2 km/h 15.8 km/h 60% 0.0 mm 278 W/m2
16:33 20.6 °C 12.6 °C 1026.6 hPa ESE 7.2 km/h 15.8 km/h 60% 0.0 mm 276 W/m2
16:39 21.1 °C 12.3 °C 1026.3 hPa ESE 5.0 km/h 15.8 km/h 57% 0.0 mm 503 W/m2
16:44 21.5 °C 12.1 °C 1026.3 hPa ESE 2.6 km/h 17.2 km/h 55% 0.0 mm 200 W/m2
16:49 20.9 °C 11.6 °C 1026.6 hPa ESE 1.1 km/h 17.2 km/h 55% 0.0 mm 213 W/m2
16:53 21.1 °C 11.7 °C 1026.3 hPa East 6.1 km/h 15.8 km/h 55% 0.0 mm 342 W/m2
16:58 21.7 °C 12.3 °C 1026.3 hPa ESE 5.0 km/h 12.2 km/h 55% 0.0 mm 390 W/m2
17:03 22.3 °C 12.3 °C 1026.3 hPa East 12.2 km/h 18.3 km/h 53% 0.0 mm 398 W/m2
17:08 21.5 °C 11.6 °C 1026.3 hPa East 9.7 km/h 19.5 km/h 53% 0.0 mm 368 W/m2
17:13 21.8 °C 12.4 °C 1026.3 hPa East 2.6 km/h 19.5 km/h 55% 0.0 mm 373 W/m2
17:18 22.2 °C 12.4 °C 1026.3 hPa East 3.5 km/h 18.3 km/h 54% 0.0 mm 355 W/m2
17:23 22.2 °C 12.2 °C 1026.6 hPa East 6.1 km/h 14.8 km/h 53% 0.0 mm 321 W/m2
17:28 22.1 °C 11.8 °C 1026.6 hPa ESE 11.1 km/h 17.2 km/h 52% 0.0 mm 257 W/m2
17:33 21.2 °C 11.3 °C 1026.3 hPa East 5.0 km/h 20.9 km/h 53% 0.0 mm 164 W/m2
17:38 20.3 °C 11.2 °C 1026.3 hPa East 12.2 km/h 20.9 km/h 56% 0.0 mm 137 W/m2
17:43 20.1 °C 11.3 °C 1026.3 hPa East 6.1 km/h 19.5 km/h 57% 0.0 mm 116 W/m2
17:48 19.9 °C 12.2 °C 1026.6 hPa East 3.5 km/h 17.2 km/h 61% 0.0 mm 105 W/m2
17:53 19.6 °C 12.4 °C 1026.6 hPa East 2.6 km/h 14.8 km/h 63% 0.0 mm 99 W/m2
17:58 19.5 °C 12.5 °C 1026.3 hPa East 7.2 km/h 15.8 km/h 64% 0.0 mm 94 W/m2
18:03 19.3 °C 12.3 °C 1026.3 hPa East 5.0 km/h 15.8 km/h 64% 0.0 mm 91 W/m2
18:08 19.3 °C 12.3 °C 1026.3 hPa East 8.7 km/h 11.1 km/h 64% 0.0 mm 80 W/m2
18:13 19.2 °C 12.2 °C 1026.3 hPa East 3.5 km/h 12.2 km/h 64% 0.0 mm 74 W/m2
18:18 19.0 °C 12.3 °C 1026.6 hPa East 5.0 km/h 12.2 km/h 65% 0.0 mm 70 W/m2
18:23 18.8 °C 12.1 °C 1026.3 hPa ESE 6.1 km/h 21.9 km/h 65% 0.0 mm 82 W/m2
18:28 19.0 °C 12.3 °C 1026.6 hPa ESE 7.2 km/h 21.9 km/h 65% 0.0 mm 73 W/m2
18:33 18.9 °C 12.4 °C 1026.6 hPa East 6.1 km/h 13.4 km/h 66% 0.0 mm 57 W/m2
18:38 18.9 °C 12.7 °C 1026.3 hPa East 6.1 km/h 13.4 km/h 67% 0.0 mm 49 W/m2
18:43 18.8 °C 12.6 °C 1026.6 hPa East 6.1 km/h 15.8 km/h 67% 0.0 mm 43 W/m2
18:48 18.6 °C 12.6 °C 1026.6 hPa East 5.0 km/h 15.8 km/h 68% 0.0 mm 38 W/m2
18:53 18.5 °C 12.5 °C 1026.6 hPa East 5.0 km/h 12.2 km/h 68% 0.0 mm 34 W/m2
18:58 18.5 °C 12.5 °C 1026.6 hPa East 1.1 km/h 11.1 km/h 68% 0.0 mm 33 W/m2
19:03 18.4 °C 12.6 °C 1026.6 hPa East 5.0 km/h 11.1 km/h 69% 0.0 mm 30 W/m2
19:08 18.3 °C 12.7 °C 1027.0 hPa East 3.5 km/h 11.1 km/h 70% 0.0 mm 26 W/m2
19:13 18.1 °C 12.8 °C 1027.0 hPa ESE 7.2 km/h 9.7 km/h 71% 0.0 mm 23 W/m2
19:18 18.0 °C 12.9 °C 1027.0 hPa East 5.0 km/h 11.1 km/h 72% 0.0 mm 19 W/m2
19:23 17.9 °C 13.0 °C 1027.0 hPa East 6.1 km/h 12.2 km/h 73% 0.0 mm 16 W/m2
19:28 17.9 °C 13.0 °C 1027.0 hPa ESE 3.5 km/h 12.2 km/h 73% 0.0 mm 11 W/m2
19:33 17.7 °C 12.8 °C 1027.0 hPa East 3.5 km/h 8.7 km/h 73% 0.0 mm 6 W/m2
19:43 17.4 °C 12.7 °C 1027.0 hPa ENE 1.1 km/h 7.2 km/h 74% 0.0 mm 1 W/m2
19:48 17.1 °C 12.4 °C 1027.0 hPa ENE 3.5 km/h 7.2 km/h 74% 0.0 mm 0 W/m2
19:53 17.0 °C 12.6 °C 1027.3 hPa ENE 2.6 km/h 7.2 km/h 75% 0.0 mm 0 W/m2
19:58 16.7 °C 12.7 °C 1027.0 hPa ENE 5.0 km/h 9.7 km/h 77% 0.0 mm 0 W/m2
20:03 16.5 °C 12.4 °C 1027.3 hPa ENE 1.1 km/h 9.7 km/h 77% 0.0 mm 0 W/m2
20:08 16.3 °C 12.4 °C 1027.7 hPa NE 7.2 km/h 9.7 km/h 78% 0.0 mm 0 W/m2
20:13 16.2 °C 12.6 °C 1027.7 hPa NE 3.5 km/h 8.7 km/h 79% 0.0 mm 0 W/m2
20:18 16.1 °C 12.4 °C 1027.7 hPa NE 2.6 km/h 8.7 km/h 79% 0.0 mm 0 W/m2
20:23 16.1 °C 12.4 °C 1027.7 hPa Calm   6.1 km/h 79% 0.0 mm 0 W/m2
20:28 15.9 °C 12.4 °C 1027.7 hPa Calm   5.0 km/h 80% 0.0 mm 0 W/m2
20:33 15.8 °C 12.4 °C 1027.7 hPa Calm   5.0 km/h 80% 0.0 mm 0 W/m2
20:38 15.6 °C 12.0 °C 1027.7 hPa NE 1.1 km/h 5.0 km/h 79% 0.0 mm 0 W/m2
20:43 15.7 °C 12.1 °C 1027.7 hPa Calm   5.0 km/h 79% 0.0 mm 0 W/m2
20:48 15.8 °C 12.0 °C 1027.7 hPa NE 3.5 km/h 6.1 km/h 78% 0.0 mm 0 W/m2
20:53 15.8 °C 11.8 °C 1027.7 hPa Calm   6.1 km/h 77% 0.0 mm 0 W/m2
20:58 15.7 °C 11.7 °C 1028.0 hPa NNE 1.1 km/h 6.1 km/h 77% 0.0 mm 0 W/m2
21:03 15.6 °C 11.6 °C 1028.0 hPa Calm   3.5 km/h 77% 0.0 mm 0 W/m2
21:08 15.6 °C 11.6 °C 1028.0 hPa Calm   3.5 km/h 77% 0.0 mm 0 W/m2
21:13 15.5 °C 11.7 °C 1028.0 hPa Calm   2.6 km/h 78% 0.0 mm 0 W/m2
21:18 15.5 °C 11.7 °C 1028.0 hPa Calm   2.6 km/h 78% 0.0 mm 0 W/m2
21:23 15.4 °C 11.6 °C 1028.0 hPa Calm   2.6 km/h 78% 0.0 mm 0 W/m2
21:28 15.3 °C 11.7 °C 1028.3 hPa Calm   2.6 km/h 79% 0.0 mm 0 W/m2
21:33 15.3 °C 11.9 °C 1028.3 hPa Calm   2.6 km/h 80% 0.0 mm 0 W/m2
21:38 15.2 °C 11.8 °C 1028.3 hPa Calm   3.5 km/h 80% 0.0 mm 0 W/m2
21:43 15.1 °C 11.9 °C 1028.3 hPa Calm   3.5 km/h 81% 0.0 mm 0 W/m2
21:48 15.0 °C 11.8 °C 1028.3 hPa Calm   3.5 km/h 81% 0.0 mm 0 W/m2
21:53 14.9 °C 11.8 °C 1028.3 hPa Calm   1.1 km/h 82% 0.0 mm 0 W/m2
21:58 14.8 °C 11.9 °C 1028.3 hPa Calm   1.1 km/h 83% 0.0 mm 0 W/m2
22:17 14.5 °C 11.8 °C 1028.3 hPa Calm   2.6 km/h 84% 0.0 mm 0 W/m2
22:22 14.4 °C 11.7 °C 1028.3 hPa Calm   2.6 km/h 84% 0.0 mm 0 W/m2
22:27 14.3 °C 11.6 °C 1028.3 hPa Calm   1.1 km/h 84% 0.0 mm 0 W/m2
22:32 14.3 °C 11.8 °C 1028.7 hPa Calm   1.1 km/h 85% 0.0 mm 0 W/m2
22:37 14.2 °C 11.7 °C 1028.7 hPa Calm   1.1 km/h 85% 0.0 mm 0 W/m2
22:42 14.2 °C 11.7 °C 1028.7 hPa Calm   1.1 km/h 85% 0.0 mm 0 W/m2
22:47 14.1 °C 11.6 °C 1028.7 hPa Calm   1.1 km/h 85% 0.0 mm 0 W/m2
22:52 14.2 °C 11.7 °C 1028.7 hPa Calm   1.1 km/h 85% 0.0 mm 0 W/m2
22:57 14.1 °C 11.6 °C 1028.7 hPa Calm   1.1 km/h 85% 0.0 mm 0 W/m2
23:02 13.9 °C 11.6 °C 1028.7 hPa Calm   1.1 km/h 86% 0.0 mm 0 W/m2
23:07 14.0 °C 11.5 °C 1028.7 hPa Calm   3.5 km/h 85% 0.0 mm 0 W/m2
23:12 14.1 °C 11.6 °C 1028.7 hPa Calm   5.0 km/h 85% 0.0 mm 0 W/m2
23:17 14.2 °C 11.7 °C 1028.7 hPa Calm   5.0 km/h 85% 0.0 mm 0 W/m2
23:22 14.3 °C 11.8 °C 1028.7 hPa NE 2.6 km/h 6.1 km/h 85% 0.0 mm 0 W/m2
23:27 14.4 °C 11.9 °C 1028.7 hPa NE 1.1 km/h 6.1 km/h 85% 0.0 mm 0 W/m2
23:32 14.5 °C 11.8 °C 1028.7 hPa Calm   6.1 km/h 84% 0.0 mm 0 W/m2
23:37 14.4 °C 11.7 °C 1028.3 hPa Calm   2.6 km/h 84% 0.0 mm 0 W/m2
23:42 14.4 °C 11.7 °C 1028.7 hPa Calm   3.5 km/h 84% 0.0 mm 0 W/m2
23:47 14.4 °C 11.7 °C 1028.7 hPa ENE 2.6 km/h 3.5 km/h 84% 0.0 mm 0 W/m2
23:52 14.5 °C 11.8 °C 1028.7 hPa Calm   3.5 km/h 84% 0.0 mm 0 W/m2
23:57 14.5 °C 11.8 °C 1028.7 hPa Calm   3.5 km/h 84% 0.0 mm 0 W/m2
Northern Hawkes Bay. New Zealand Historic Data
Compliments of Weather Underground - 2 mb